User: anonymous   Login
Location: Plum
(40.5000°N, 79.7500°W)
Time: 21:36:05
(UTC-05:00)
Language:

MOZ.5/SAFIR/RUBIN 5/SL-8 - Orbit

View from above orbital plane
View from above orbital plane
View from above satellite
View from above satellite

Ground track
Ground track

The orbit data is extracted from the following two-line orbital elements,

1 28898U 05043G   17053.06437956  .00000027  00000-0  14878-4 0  9994
2 28898  97.9075 207.9372 0019734 186.0638 174.0327 14.60164379603037
Epoch (UTC): 22 February 2017 01:32:42
Eccentricity: 0.0019734
inclination: 97.9075°
perigee height: 678 km
apogee height: 706 km
right ascension of ascending node: 207.9372°
argument of perigee: 186.0638°
revolutions per day: 14.60164379
mean anomaly at epoch: 174.0327°
orbit number at epoch: 60303

The dashed part of the orbit path shows where the satellite is in the earth's shadow,  

DLR